Theta_e
307 307 307 306 306 307 306 306 306 306 306 308 310 312 313 313 313 311 310 309 311 312 313 311 311 311 310 310 309 309 310 309 309 309 308 308 308 308 308 308 308 308 308 308 308 307 308 308 308 308 309 308 309 308 308 308 308 308 310 312 314 315 317 318 319 318 319 320 320 321 321 321 321 322 324 325 324 322 320 320 319 318 315 315 316 315 318
307 307 307 307 306 306 306 306 306 306 306 307 309 312 312 312 311 311 310 310 311 313 313 312 312 310 310 310 309 309 309 309 309 309 309 309 308 308 308 308 308 308 308 308 307 307 308 308 308 308 308 308 309 309 308 308 308 308 310 312 314 316 317 319 319 319 318 317 318 320 321 320 320 322 325 324 324 325 324 322 323 321 318 316 317 314 317
307 307 307 306 306 306 306 307 307 306 306 307 310 311 311 312 313 311 310 310 311 311 311 312 311 311 310 310 310 309 309 309 309 309 309 309 308 308 308 308 308 308 308 308 308 308 308 308 308 309 308 308 308 309 308 308 308 308 310 311 312 314 317 319 320 320 318 317 318 318 319 320 321 322 324 324 324 324 323 321 320 320 320 319 317 315 319
307 307 306 306 307 306 306 307 307 306 307 307 310 311 311 313 314 313 311 310 310 310 310 310 311 310 311 310 310 309 309 308 308 308 309 308 308 308 308 308 308 308 308 309 309 309 308 308 309 310 309 308 308 309 309 308 308 309 311 311 311 312 314 316 319 321 319 320 321 318 317 318 318 320 321 322 323 323 323 321 318 320 320 319 320 321 320
307 306 306 307 307 306 307 307 307 307 307 307 310 312 311 312 313 312 312 311 311 310 309 310 310 310 311 310 309 309 308 309 309 308 309 309 308 308 309 308 309 309 310 310 310 310 309 309 310 310 310 309 309 309 309 308 309 309 310 310 310 311 312 313 316 318 318 319 318 316 315 316 316 318 319 321 322 322 322 320 321 325 322 318 323 327 322
307 307 307 307 307 307 307 307 307 307 307 309 312 312 311 312 311 309 310 311 311 311 310 310 310 309 309 309 309 309 308 308 309 309 308 309 308 309 309 309 309 309 310 310 310 311 311 310 311 311 310 310 309 309 309 308 309 309 309 309 309 310 310 311 312 313 314 314 314 314 314 315 315 316 317 319 320 321 321 321 324 327 324 321 328 331 326
306 307 307 307 307 307 307 307 307 307 308 310 312 312 311 311 310 309 309 310 310 309 309 310 309 309 309 310 309 308 308 308 309 308 308 309 309 309 309 309 309 309 310 310 311 312 312 311 311 311 311 311 310 310 310 309 309 309 309 309 309 309 310 311 311 312 313 312 313 313 313 314 315 315 317 318 319 320 321 323 324 325 325 326 329 331 330
306 307 307 307 307 307 307 308 308 307 309 311 311 311 310 310 310 310 310 310 309 309 309 310 309 309 309 310 309 308 308 308 308 308 308 309 310 309 308 308 308 309 310 311 311 311 311 311 311 311 311 311 311 310 310 309 309 309 309 309 309 309 310 311 312 312 314 313 314 314 313 315 315 314 316 317 319 320 320 321 323 323 325 328 330 329 328
307 307 307 307 307 308 308 309 308 308 309 311 311 310 309 310 310 310 311 311 310 309 309 309 310 309 308 309 309 309 309 308 308 308 308 308 309 309 308 308 309 309 310 310 311 310 310 310 309 310 310 310 310 310 309 309 309 309 309 309 309 309 309 310 310 311 313 313 314 314 314 315 315 314 316 317 318 320 320 320 324 325 326 330 329 325 328
307 307 307 307 308 309 309 309 309 309 309 311 311 310 310 310 310 310 311 312 311 310 310 309 310 309 308 309 309 308 309 308 309 309 309 308 309 308 308 308 309 310 310 310 310 309 308 308 309 309 309 308 308 309 309 308 309 309 309 309 309 309 309 309 310 311 311 312 313 314 315 316 316 316 317 317 319 320 319 325 335 336 333 332 329 328 335
307 307 307 308 309 309 309 309 309 309 310 310 311 311 310 310 310 310 311 312 311 310 310 310 310 309 309 309 309 309 309 309 309 310 309 308 308 308 309 309 309 310 311 310 309 309 308 308 309 308 308 308 308 308 309 309 309 310 310 310 310 309 309 309 310 311 312 312 313 316 317 317 319 321 320 320 320 320 321 330 339 340 337 334 334 337 340
307 307 308 309 309 309 309 309 309 309 309 310 310 311 311 310 311 311 311 312 311 310 311 311 310 310 309 309 309 309 309 309 309 310 309 309 308 308 308 309 310 311 310 309 309 308 309 309 309 309 309 309 309 309 309 309 310 310 310 311 311 310 309 309 309 310 311 311 314 318 319 319 321 325 326 324 321 320 327 335 337 336 335 336 337 338 337
307 307 308 309 309 309 309 309 309 309 309 309 310 311 310 311 311 311 311 312 312 311 311 311 310 310 309 309 309 309 309 309 309 309 309 309 308 308 308 309 309 310 309 308 308 309 310 310 310 310 310 310 310 311 310 310 310 310 310 311 311 310 309 309 309 310 311 311 314 318 320 320 324 327 327 328 329 329 334 336 334 332 333 334 334 335 334
307 307 308 309 309 309 309 309 309 308 308 309 310 311 310 310 311 311 311 312 312 310 310 311 310 310 310 310 310 309 309 309 309 309 309 309 308 309 309 308 309 310 310 309 309 311 311 311 311 311 310 310 311 312 312 311 311 311 311 311 310 310 309 309 309 310 311 312 314 317 319 320 324 328 328 329 332 332 334 338 335 330 329 330 332 333 332
307 308 308 309 309 309 309 309 309 309 309 309 310 311 311 310 311 311 311 312 312 311 311 311 310 310 310 310 310 310 310 310 310 310 309 309 309 309 309 308 309 310 310 309 310 311 312 311 310 309 309 310 311 312 311 311 311 311 311 311 311 309 309 310 310 310 311 312 314 318 319 320 324 328 327 327 329 329 331 337 336 329 326 327 329 330 329
307 308 308 308 309 309 308 309 309 309 309 309 311 312 311 310 310 311 311 311 312 312 311 310 310 310 310 310 310 310 311 311 310 310 310 309 309 308 308 309 310 310 309 309 311 311 311 310 309 308 309 309 310 311 311 311 312 311 311 312 312 310 309 309 309 310 311 312 315 317 319 323 328 328 325 325 328 328 329 336 337 329 325 325 326 326 326
307 308 308 308 308 309 309 309 309 309 309 309 311 312 311 310 310 310 311 311 312 312 310 309 310 310 310 310 310 310 310 310 310 311 310 309 309 309 308 309 309 309 309 310 311 311 309 308 308 308 309 310 311 311 312 312 312 312 311 312 313 312 310 309 309 310 311 313 315 316 318 324 327 325 324 324 325 328 333 340 336 327 323 323 324 324 324
308 308 308 308 308 309 308 309 309 309 309 309 310 311 311 310 310 310 311 311 311 311 310 310 310 310 311 311 310 310 310 310 311 311 311 310 310 310 310 309 309 309 310 310 310 310 308 308 309 309 310 312 312 312 312 312 312 312 312 312 314 313 311 309 309 310 311 312 314 315 318 324 325 323 323 324 326 332 338 337 331 325 322 322 322 322 322
308 308 308 308 308 308 308 308 308 308 308 308 309 311 311 311 311 311 311 311 311 311 311 311 311 311 311 311 310 310 310 311 311 311 311 312 311 310 310 310 309 309 311 311 310 309 308 309 310 310 310 311 312 312 311 311 311 312 312 313 314 313 312 310 310 310 310 312 314 315 318 322 322 322 323 324 329 337 335 328 324 322 320 320 320 320 320
308 307 307 308 308 308 308 308 308 308 308 308 309 311 311 311 311 311 311 312 311 311 311 311 311 311 311 311 311 311 311 311 311 311 312 313 312 310 311 312 310 310 311 312 311 310 310 310 310 311 310 310 312 312 311 312 312 311 312 314 314 313 312 312 311 310 311 312 313 316 320 321 319 321 323 324 327 329 324 322 322 321 319 320 319 318 318
308 308 308 308 308 308 308 308 308 308 308 307 308 311 311 310 310 311 311 311 311 311 312 311 312 312 312 311 311 311 311 311 311 312 313 314 312 311 312 312 310 310 311 311 311 311 312 311 311 311 311 311 312 312 312 312 312 310 311 314 315 313 313 313 313 312 312 314 316 318 319 319 318 320 322 321 320 320 319 320 321 319 318 319 319 317 317
308 308 308 308 308 308 308 309 308 307 308 307 308 310 311 310 310 310 311 311 311 311 311 312 312 312 312 312 312 312 312 312 311 311 312 313 313 312 312 311 311 311 311 311 311 312 312 311 311 312 312 312 312 312 312 313 313 312 311 313 313 313 313 313 314 315 315 316 317 317 316 315 316 317 318 317 316 317 317 318 318 317 317 318 318 318 318
308 308 308 308 308 308 308 308 308 307 308 308 309 310 311 310 310 310 311 311 311 312 312 312 313 313 313 312 312 312 312 312 312 312 312 312 313 314 313 311 310 311 311 311 311 310 310 310 310 311 312 312 311 312 312 312 312 312 311 311 311 311 312 313 314 314 315 315 315 315 314 314 315 315 316 316 316 316 316 316 316 316 316 317 318 318 318
309 308 308 308 309 309 308 308 308 307 307 308 309 310 310 310 310 310 311 312 312 313 314 314 313 313 312 312 312 312 312 312 312 312 311 311 312 314 314 312 310 311 311 310 309 309 309 309 310 311 311 311 311 311 312 312 312 312 311 311 310 310 311 313 313 312 313 315 316 315 314 314 315 315 315 316 316 316 316 316 316 315 315 316 317 317 318
309 309 309 309 309 309 309 308 308 308 308 308 309 310 310 310 310 310 311 313 313 314 315 316 314 312 312 312 312 312 312 313 313 313 312 312 312 313 313 313 311 311 312 311 309 309 309 308 309 310 311 311 311 311 312 312 311 311 311 310 310 310 311 312 311 311 313 315 315 314 313 314 316 317 317 316 316 316 315 315 315 315 316 316 316 316 317
310 310 310 310 310 310 310 310 309 309 309 309 309 310 311 310 310 310 311 313 313 313 314 316 315 313 313 314 313 313 313 313 313 313 313 312 312 312 312 313 312 312 313 313 311 310 309 308 308 309 310 311 310 310 311 311 310 310 310 309 308 310 311 311 311 312 313 315 314 313 314 316 318 317 316 316 315 315 315 314 314 315 316 316 316 316 317
311 311 312 312 311 311 311 311 310 310 310 309 309 311 311 310 311 311 311 312 314 315 316 316 315 315 314 314 314 313 314 313 312 313 313 313 312 312 312 312 312 312 313 313 312 311 310 309 309 309 309 310 310 310 311 311 310 310 309 308 308 309 310 311 311 312 314 315 313 312 313 316 316 315 315 315 314 314 314 315 315 315 315 315 316 316 317
311 312 313 312 311 311 311 311 312 311 310 309 310 311 311 311 311 311 311 311 313 315 315 315 315 314 314 314 314 314 314 313 312 313 313 312 312 312 312 312 312 312 312 312 312 312 311 310 310 310 310 311 311 311 311 312 312 311 309 308 309 309 309 309 310 312 313 312 311 311 312 313 313 313 313 313 313 313 314 315 315 316 315 315 316 317 317
311 313 315 314 312 312 312 312 312 311 310 310 310 311 312 312 312 311 311 311 311 313 313 314 315 315 315 314 314 315 315 314 313 313 313 313 313 313 313 313 312 312 312 312 312 313 313 311 311 311 311 311 311 312 311 312 313 311 310 309 310 309 309 309 310 310 311 311 310 310 310 311 312 312 312 313 314 315 315 315 316 317 316 316 316 316 316
311 313 316 316 313 312 312 312 313 312 311 311 312 314 317 317 314 312 312 312 311 312 313 315 316 316 315 314 314 316 316 315 314 314 314 313 314 313 313 313 313 312 312 313 313 313 313 313 312 312 311 311 311 312 311 311 312 311 310 310 310 310 309 309 309 310 310 310 309 309 310 311 311 312 313 313 315 316 316 316 317 317 318 318 317 317 317
311 313 317 318 315 312 312 313 313 312 311 313 315 318 320 320 316 313 312 312 311 312 312 314 316 316 315 315 315 316 316 317 316 316 315 314 314 314 314 314 314 314 313 314 314 313 313 313 313 313 312 310 311 311 311 311 312 311 311 310 310 310 310 310 309 309 310 309 309 309 310 310 311 312 313 313 313 316 317 317 317 318 318 318 317 317 318
311 313 317 319 317 313 312 312 313 312 312 314 317 317 317 316 314 312 312 312 312 312 312 314 318 318 317 317 315 313 314 316 317 316 316 316 315 315 315 315 315 315 314 314 314 313 313 314 314 313 312 311 311 311 310 310 311 311 310 310 310 309 309 309 309 309 309 309 309 309 310 310 310 311 312 312 313 316 317 316 317 317 318 318 317 317 317
312 314 317 319 318 314 312 311 312 312 312 313 315 315 314 313 312 312 311 312 312 311 311 314 319 320 318 317 316 313 314 317 318 317 317 317 317 317 316 315 315 316 315 314 314 313 313 314 314 313 312 312 311 310 310 310 311 311 310 309 309 308 308 308 308 309 309 309 309 310 310 310 310 311 312 312 313 315 316 316 316 316 316 317 317 316 316
312 314 317 318 317 314 312 311 311 311 312 314 316 316 315 313 312 311 312 312 312 312 311 313 318 319 318 317 317 316 316 318 318 317 318 318 318 317 317 316 316 316 315 314 314 314 313 313 313 312 312 312 311 310 310 311 310 310 309 309 308 308 308 308 308 308 308 308 309 309 309 309 310 311 311 312 312 314 316 317 315 314 315 316 316 315 316
312 314 316 316 314 313 311 310 311 312 314 316 318 317 315 313 312 312 312 312 313 314 315 314 316 318 318 318 319 318 317 318 318 317 317 317 317 317 317 317 316 316 315 314 314 314 313 312 312 312 311 311 310 309 310 311 311 310 309 309 308 308 308 308 308 307 307 308 308 308 308 309 309 310 310 310 311 312 315 316 315 314 314 315 315 315 316
313 314 314 314 313 312 312 312 313 315 317 318 317 314 312 311 312 312 312 312 313 315 316 317 316 317 317 318 319 318 318 319 319 317 316 317 317 317 316 317 316 315 314 315 315 313 312 312 312 311 310 310 310 310 311 311 311 310 310 310 309 309 308 308 308 307 307 308 308 308 308 309 309 309 309 310 310 311 313 315 315 315 314 315 314 315 315
313 313 313 313 313 315 317 317 316 316 317 316 313 311 310 311 312 312 312 312 312 313 314 315 317 318 317 317 318 318 319 319 319 318 317 318 318 317 317 317 316 315 315 315 314 313 312 312 312 310 309 310 311 312 312 311 311 310 310 311 310 310 309 308 308 307 308 308 308 308 308 308 308 308 309 309 310 311 312 314 316 316 315 314 314 314 315
312 313 314 315 318 321 322 321 318 315 314 313 312 312 312 312 313 313 313 312 313 313 312 314 317 318 317 317 318 318 319 319 319 319 318 317 318 318 318 317 316 315 315 315 314 313 313 313 312 310 310 311 311 312 312 312 311 310 310 311 310 310 310 309 308 308 308 309 309 309 308 308 309 308 308 309 310 311 312 313 314 316 316 315 314 314 315
312 314 317 320 321 322 323 320 316 314 313 312 313 316 316 315 315 318 318 315 315 316 315 315 318 318 317 317 317 318 318 319 320 320 319 317 317 318 317 317 317 316 314 314 314 314 313 312 310 310 310 311 312 312 312 312 311 310 309 310 311 311 311 310 309 308 308 309 309 309 309 309 309 309 309 309 310 311 311 312 313 315 316 317 317 316 316
316 319 322 323 322 320 318 314 313 313 314 314 315 317 319 318 318 320 319 318 318 318 317 316 317 318 318 317 317 318 319 319 320 321 320 318 317 317 318 317 316 315 313 313 314 313 312 310 310 309 310 312 312 312 311 311 312 311 310 311 312 312 312 311 310 308 308 308 308 309 309 309 309 309 309 309 310 310 311 311 312 313 315 316 317 318 317
320 322 322 322 320 318 315 314 313 314 316 318 318 319 319 318 318 319 318 317 317 316 315 315 315 317 318 318 317 319 320 320 319 320 320 319 317 317 318 318 316 314 313 313 313 312 310 309 309 309 310 312 312 312 311 311 311 311 312 313 313 313 312 312 311 309 308 308 308 308 309 309 309 309 309 309 309 310 310 311 311 312 313 315 315 316 316
317 318 318 318 317 317 316 316 316 317 318 319 319 317 316 316 317 317 317 316 314 313 315 315 313 314 316 316 316 319 320 320 320 320 320 318 317 317 318 317 315 314 313 313 312 311 309 309 309 309 310 312 311 311 311 311 311 311 312 313 313 313 312 312 311 309 308 308 308 308 308 309 309 308 308 308 309 309 310 310 311 311 312 313 314 314 315
313 314 316 317 319 319 318 318 320 320 318 315 314 314 315 315 315 315 315 315 314 314 315 315 314 313 315 316 317 319 321 320 319 320 320 319 317 317 317 315 314 314 313 311 310 310 309 309 309 309 310 311 311 311 312 312 311 310 311 313 313 312 312 312 311 310 309 308 308 308 308 308 308 308 308 308 308 309 309 310 310 310 310 310 311 312 313
315 316 318 320 322 321 319 318 319 318 316 314 314 315 316 316 315 315 315 315 314 313 314 314 313 314 315 316 318 320 321 320 320 320 319 318 316 316 315 314 314 313 312 310 310 309 309 309 310 310 310 310 309 310 312 312 310 309 310 312 312 312 311 310 310 310 309 308 308 308 307 308 308 308 307 308 308 308 309 309 309 309 309 309 309 310 311
320 319 319 319 318 316 315 314 314 314 314 315 316 316 316 316 316 316 315 314 313 313 313 314 313 314 315 316 317 317 318 318 319 318 316 315 314 314 314 313 312 311 311 310 309 308 308 309 309 310 310 310 310 310 312 312 310 309 310 311 311 311 311 310 310 310 309 308 308 308 307 307 308 308 308 308 308 308 308 308 308 308 308 308 308 308 309
323 320 318 317 315 313 313 313 313 314 315 316 316 316 316 317 316 316 314 314 314 314 315 314 313 314 314 315 315 315 314 314 315 315 313 313 313 313 312 311 311 310 310 309 308 308 309 309 309 309 310 310 310 311 312 311 310 310 311 311 310 310 311 311 310 310 310 308 308 307 307 307 307 307 307 307 307 307 307 307 307 307 307 307 307 307 307
322 318 315 315 314 314 314 314 315 315 315 315 316 316 316 316 316 316 316 315 315 315 315 314 314 314 314 313 314 314 313 313 313 313 312 312 313 312 311 311 310 310 309 309 308 309 309 309 309 310 309 309 309 310 311 311 310 311 311 310 309 310 311 311 310 309 309 309 308 307 307 307 307 306 307 307 307 307 307 307 307 307 307 306 306 306 306
320 316 315 315 315 315 315 316 316 316 315 315 316 316 315 316 316 317 316 315 314 314 313 313 314 315 314 313 313 313 313 313 313 313 312 312 312 311 310 310 310 309 309 309 309 309 308 308 309 309 309 308 308 309 310 310 310 310 310 309 308 309 310 311 310 309 309 309 308 307 307 307 307 306 306 306 306 306 306 306 306 306 306 306 306 306 306
320 317 315 316 316 316 316 315 316 316 316 317 318 317 316 317 318 317 315 314 315 315 314 313 313 314 313 312 312 313 314 314 313 312 312 312 311 310 310 310 309 309 309 309 309 308 308 308 309 309 308 307 307 308 309 309 309 309 309 309 309 309 310 310 310 309 308 308 308 307 307 306 306 306 306 306 306 306 306 306 306 305 306 306 306 305 305
319 317 316 316 316 316 316 316 317 317 318 318 319 319 317 316 315 315 314 315 317 317 315 313 312 313 312 311 311 312 314 315 313 312 312 312 311 310 310 310 310 309 309 309 308 308 307 307 308 308 307 307 306 306 307 309 309 309 309 309 309 309 308 309 309 309 308 307 308 308 308 307 307 307 307 306 306 305 305 305 305 305 305 305 305 305 305
315 315 315 316 316 316 316 317 317 318 320 321 321 319 317 314 313 313 315 316 316 315 314 313 312 312 311 311 311 312 313 313 313 312 312 311 310 310 310 310 309 309 309 308 308 308 307 307 307 307 307 306 306 306 307 308 309 309 309 308 308 308 308 307 308 309 309 309 309 309 309 308 308 307 306 306 305 305 305 305 305 305 305 304 304 305 305
313 313 315 316 316 316 316 318 318 319 321 323 321 318 316 315 315 314 314 315 316 314 313 313 313 312 311 311 312 313 313 312 313 313 313 311 310 310 310 310 310 309 308 308 307 307 307 307 307 307 307 306 306 306 307 308 308 308 307 306 307 308 308 307 306 307 308 309 309 308 309 309 308 307 306 306 306 306 306 306 305 305 305 304 304 304 304
Wind_Speed
24 23 23 23 23 24 24 25 25 28 30 26 21 15 6 3 4 7 17 19 13 6 5 5 3 5 5 3 5 4 2 3 3 3 3 2 1 2 2 2 4 3 3 6 7 6 5 5 5 5 4 3 3 5 6 7 7 6 4 3 4 5 5 8 9 9 12 16 14 9 7 7 9 9 9 11 13 12 10 7 5 7 11 10 8 8 7
22 22 22 21 22 22 22 23 23 24 26 24 19 11 3 3 3 5 15 18 9 3 4 4 4 6 4 4 5 4 4 5 4 4 4 3 2 3 2 2 3 3 4 6 7 6 4 4 3 4 5 1 3 4 5 5 6 5 4 4 5 4 5 7 8 8 9 12 13 11 8 7 10 13 9 8 9 8 6 5 4 5 10 11 10 8 6
21 21 21 20 20 20 20 22 22 21 23 22 14 7 3 2 0 3 11 16 8 4 5 4 4 6 5 6 5 2 4 5 5 4 5 4 3 3 1 2 3 4 5 6 5 5 5 4 2 3 5 3 1 2 3 4 6 6 7 7 6 5 5 5 7 9 9 8 8 7 6 6 11 12 9 7 9 9 8 8 8 8 10 11 10 8 5
21 20 19 18 19 19 20 21 20 19 22 20 12 6 4 3 2 3 4 8 8 6 5 5 4 4 3 4 4 3 2 3 3 3 3 3 3 3 1 2 4 4 5 6 5 5 5 4 4 4 6 5 2 1 2 6 7 6 8 9 7 6 7 8 10 12 10 7 6 7 7 7 9 10 9 9 8 8 8 10 12 10 9 11 11 10 9
20 18 17 18 18 18 19 20 19 19 19 16 9 5 4 2 3 4 2 3 5 5 5 6 5 3 2 2 3 3 3 2 2 1 2 3 3 3 1 3 4 4 5 6 5 5 6 6 6 7 7 7 5 4 6 8 6 4 6 7 6 5 8 11 14 16 17 15 14 12 10 10 10 8 8 8 7 8 11 14 15 10 8 12 13 12 13
19 17 16 16 16 17 18 18 19 18 16 13 8 4 3 3 3 4 4 2 4 5 5 6 6 5 4 2 2 3 3 3 2 1 1 2 3 3 2 1 3 4 5 5 5 5 6 6 6 6 6 7 7 7 8 7 4 4 6 6 4 6 8 11 14 17 19 18 16 14 12 11 12 12 11 9 8 10 12 15 16 11 8 9 8 7 10
17 15 15 14 14 16 17 17 18 17 15 12 9 4 4 3 4 3 3 1 4 5 3 4 6 7 5 3 4 4 4 4 3 2 3 3 1 3 4 3 4 4 4 5 5 5 6 6 5 6 7 8 8 7 7 5 2 3 6 5 5 6 7 10 12 14 18 19 17 15 14 13 14 14 14 13 11 12 12 13 14 13 11 10 8 9 10
16 14 13 12 12 14 15 16 17 16 14 11 9 7 6 4 3 3 2 4 5 4 4 3 5 6 4 3 4 4 3 4 3 3 4 4 1 3 6 5 5 5 4 5 6 5 6 8 8 8 9 8 7 6 5 4 3 5 5 4 5 6 6 9 10 10 14 18 17 16 15 14 15 16 16 15 14 13 13 12 12 13 12 11 10 11 12
14 13 12 10 11 13 14 15 15 15 13 10 8 8 7 5 4 2 1 3 2 2 4 3 2 4 5 4 4 3 3 5 4 3 3 4 3 4 6 6 6 5 4 5 6 6 7 9 11 11 10 10 8 6 6 7 7 7 6 5 6 6 7 9 9 8 11 14 15 16 15 15 17 18 17 17 15 13 12 11 11 13 13 12 12 12 10
12 11 10 9 11 12 13 13 13 12 11 9 6 5 5 5 4 2 1 2 1 2 3 2 2 3 5 5 4 4 4 4 4 3 1 2 4 4 6 7 6 6 5 5 6 8 9 11 12 11 12 13 12 10 11 13 11 9 8 7 7 7 7 7 7 8 9 12 14 14 12 13 14 14 16 18 16 13 13 11 6 6 9 10 10 7 3
11 9 9 10 11 12 12 11 11 10 9 7 5 4 5 4 2 1 1 2 2 2 2 3 3 3 4 4 4 4 4 4 4 3 1 3 4 4 6 7 7 5 5 5 7 9 11 13 13 12 14 16 16 14 15 17 15 12 10 8 8 9 9 7 7 7 9 12 13 10 12 14 10 7 11 17 18 18 15 9 5 3 4 5 6 5 5
10 8 8 10 11 11 11 10 10 9 7 5 3 3 3 3 2 2 1 2 3 2 2 3 4 2 3 2 2 4 6 5 3 3 5 6 6 5 5 7 7 5 6 8 10 10 12 13 14 14 15 16 17 17 18 18 16 13 12 11 10 10 9 7 7 7 8 10 9 9 13 12 5 2 6 11 16 16 9 6 5 2 2 4 6 7 7
10 6 6 9 10 9 10 9 8 8 7 4 2 2 2 1 1 2 1 2 3 2 2 3 3 2 3 2 4 5 6 6 5 5 6 7 6 6 5 5 7 7 9 10 11 11 10 10 11 11 12 12 13 14 14 15 15 15 14 13 12 11 9 7 7 7 7 8 8 9 9 7 5 4 4 4 8 11 12 9 4 1 1 3 5 6 7
8 5 7 9 9 8 8 8 8 7 7 5 2 1 1 1 1 1 1 1 2 2 2 1 1 3 4 4 5 5 4 5 5 4 5 5 6 6 5 6 7 8 9 9 8 8 7 6 7 7 6 6 7 6 5 8 11 13 13 13 13 12 10 7 7 8 7 8 8 8 9 9 8 7 4 2 3 6 7 5 3 3 2 2 3 4 7
7 5 7 8 8 7 6 7 8 7 6 4 2 1 1 1 0 1 1 2 1 1 1 2 3 5 6 5 5 5 4 3 4 4 3 3 5 5 5 6 9 9 7 6 6 6 5 5 6 5 5 4 3 3 4 6 7 9 11 12 13 14 12 10 9 8 7 8 8 8 10 10 6 4 1 1 1 1 2 3 4 2 2 3 4 5 7
5 5 6 6 6 6 5 6 7 7 5 4 2 1 0 2 2 1 1 2 1 1 2 3 3 5 6 5 4 4 4 4 5 4 2 2 2 3 4 6 8 7 6 5 5 5 4 5 6 5 5 5 4 4 5 6 6 6 8 10 13 16 14 11 10 8 8 8 7 7 9 5 2 3 2 2 2 2 3 6 5 0 3 5 5 6 8
5 5 6 5 5 5 4 5 6 6 4 3 1 1 0 2 3 2 1 1 2 2 2 2 3 3 3 4 3 3 3 3 4 4 3 3 4 4 4 5 5 5 5 5 5 4 5 6 5 6 5 1 2 4 4 3 5 6 7 7 11 14 12 10 11 10 9 10 8 7 8 3 3 6 7 5 4 2 6 8 4 2 4 5 6 7 9
5 5 5 5 5 5 4 4 5 5 3 2 1 0 0 1 3 3 2 1 2 1 1 1 3 4 3 4 4 4 3 4 3 3 4 5 5 5 7 7 4 3 3 4 4 4 6 5 4 6 5 1 2 3 2 1 4 6 7 7 8 11 10 11 12 11 10 11 9 7 7 1 6 10 8 6 4 6 8 5 2 5 5 5 7 8 9
6 5 4 4 4 5 5 4 5 5 4 1 1 2 2 2 3 3 3 2 1 1 1 2 4 5 4 5 5 4 3 4 3 3 5 4 3 7 9 6 4 3 3 4 5 4 4 3 2 3 4 1 2 3 3 3 3 5 8 9 8 9 9 10 11 10 10 9 8 8 6 3 11 13 7 4 4 6 4 1 4 6 6 7 7 8 9
6 6 5 4 4 4 5 5 5 5 4 2 2 2 2 2 3 4 4 3 2 3 4 4 5 6 5 5 6 5 4 4 3 3 5 3 3 7 7 3 1 3 4 4 4 3 3 4 2 1 3 3 2 2 4 5 4 3 6 6 6 6 6 8 10 9 8 8 8 8 5 5 14 14 6 3 2 0 2 2 3 6 7 7 7 8 9
6 6 5 4 4 4 5 5 5 5 5 3 3 2 2 3 4 4 5 4 3 3 2 2 5 8 8 8 9 9 8 7 6 5 5 3 1 3 4 3 3 3 3 3 5 4 3 3 3 2 2 3 2 3 7 7 2 2 4 2 0 0 1 4 6 6 7 9 6 3 3 5 11 10 4 4 4 4 5 4 3 5 6 5 5 7 8
6 6 6 5 4 4 5 5 5 5 4 3 3 3 3 3 3 3 4 4 5 6 7 9 11 12 12 12 12 12 12 12 10 7 5 4 2 2 4 6 5 3 2 3 4 4 3 3 4 4 4 3 3 5 7 6 2 4 6 3 1 3 2 2 4 3 4 5 3 4 6 6 7 5 3 2 3 4 6 6 5 4 4 4 4 6 8
6 6 6 5 4 4 4 5 5 4 5 4 4 4 3 3 4 3 3 5 6 9 11 12 11 10 9 8 8 9 10 11 10 9 9 6 4 3 4 5 4 1 1 1 1 3 5 5 4 4 4 3 3 5 5 3 2 4 4 2 2 5 5 3 3 3 6 6 5 5 7 8 7 3 1 1 1 3 6 6 6 5 5 5 5 5 7
6 6 6 5 4 4 4 4 5 4 5 6 5 4 3 4 4 4 4 5 4 4 5 6 4 3 3 3 3 5 7 8 9 9 10 9 6 3 2 1 2 1 1 2 1 2 4 4 4 3 3 2 3 4 4 2 3 4 4 2 2 4 5 4 3 3 4 3 2 3 9 11 7 4 2 1 2 3 6 7 7 7 7 7 7 6 8
7 6 6 5 4 4 3 4 5 5 6 7 6 4 3 3 4 4 4 4 2 2 2 1 2 3 4 4 3 4 5 5 6 6 8 10 10 6 2 2 1 2 1 1 2 2 2 3 3 3 3 2 2 3 3 3 3 4 5 5 4 4 5 5 3 3 4 4 4 7 11 10 6 5 3 3 5 7 8 8 8 8 9 9 8 7 8
7 6 6 5 4 3 3 4 5 6 7 8 7 5 3 3 4 5 4 4 3 2 2 2 3 3 3 4 4 6 7 7 4 3 6 8 9 8 6 3 3 3 3 2 2 1 2 2 2 3 3 2 3 4 4 4 5 4 3 5 6 6 6 5 5 5 5 5 6 10 10 4 4 2 4 6 8 10 11 9 9 9 10 10 9 8 8
8 7 5 4 4 4 4 4 4 5 7 8 7 5 4 4 4 5 3 4 3 2 2 2 2 3 5 5 4 5 7 8 6 2 3 5 5 6 6 6 5 4 3 1 1 1 1 1 2 3 3 3 4 4 3 4 4 3 3 6 7 5 5 5 5 4 3 3 6 9 8 4 4 7 10 11 11 12 12 11 10 9 10 11 11 10 9
9 7 6 5 5 5 5 5 4 5 7 7 6 5 5 6 6 5 4 3 3 3 3 3 3 5 6 3 2 4 5 6 6 5 4 4 4 4 5 4 4 2 1 1 1 1 1 2 2 3 3 3 3 4 3 4 2 2 5 8 7 5 5 6 5 4 5 7 9 8 7 7 9 11 13 13 12 12 12 11 10 10 10 11 11 11 10
10 8 6 5 6 7 7 7 6 6 6 6 4 5 7 7 8 7 6 4 4 3 3 4 4 3 3 3 2 1 2 4 5 5 5 5 4 4 3 3 2 1 1 0 0 0 1 1 1 2 2 3 4 4 4 4 2 4 9 10 8 7 7 7 7 7 7 8 9 9 8 8 10 12 14 13 11 10 11 11 9 9 9 10 10 10 10
10 9 7 5 6 8 9 8 8 7 7 6 4 5 6 6 8 9 8 5 4 3 3 3 2 1 1 3 3 2 1 0 2 3 3 3 3 3 2 2 1 1 1 1 1 1 0 1 0 1 2 3 3 3 4 4 3 5 10 12 10 10 10 9 8 8 7 8 11 11 9 8 9 10 11 10 9 10 11 10 9 9 8 8 9 9 9
11 10 8 6 6 8 10 10 10 9 8 6 4 4 3 1 4 7 8 6 4 3 3 3 3 2 1 2 3 3 2 3 3 2 1 1 2 2 2 2 1 1 2 2 1 1 1 1 2 2 3 3 3 2 3 5 5 7 11 13 11 11 10 8 7 7 8 10 12 10 6 6 9 9 8 10 12 12 11 10 10 9 8 8 8 8 9
11 10 8 7 6 9 11 12 11 10 9 7 6 5 4 2 1 5 7 6 4 3 3 3 3 2 1 2 3 4 4 4 4 4 3 3 2 2 3 3 2 1 2 2 2 1 2 2 2 3 4 4 3 2 4 6 6 8 12 13 12 11 11 8 7 8 8 10 12 10 7 10 13 11 10 11 12 12 11 10 9 9 7 6 7 8 9
11 9 8 7 6 8 11 13 13 11 8 9 10 8 6 7 6 5 7 6 4 3 2 2 3 2 1 1 1 3 5 4 4 5 4 3 2 2 2 2 2 2 3 2 1 1 1 2 2 3 2 2 2 3 5 6 8 9 11 12 12 12 12 11 10 10 9 9 10 9 10 12 14 12 11 11 11 12 13 10 8 7 6 6 6 7 7
10 9 7 6 5 7 10 11 11 9 7 8 7 4 4 7 8 8 8 6 3 2 2 3 4 3 1 1 2 4 5 4 3 4 4 3 3 3 2 2 2 2 2 1 1 0 0 1 3 3 2 2 3 4 5 8 10 10 10 11 12 12 12 12 13 13 12 10 10 9 10 11 11 11 12 12 13 14 15 10 6 6 6 5 5 5 5
9 7 6 4 2 5 8 8 8 6 6 6 4 2 3 4 6 9 9 6 3 2 2 2 3 4 3 1 1 3 5 4 2 2 2 1 2 2 3 2 3 2 1 0 1 1 2 1 2 3 4 4 4 5 6 9 11 11 10 10 12 12 13 14 15 14 13 11 11 11 12 13 13 12 13 14 14 15 15 11 6 4 5 5 3 3 3
7 5 4 1 3 5 6 6 6 5 4 2 1 2 2 3 6 8 7 6 5 4 2 1 3 3 4 5 3 3 4 3 1 1 1 0 1 3 3 2 2 1 1 1 1 1 2 2 1 3 5 5 4 4 5 8 10 11 10 9 10 10 12 13 14 15 13 12 12 13 13 14 14 13 13 14 14 14 14 13 9 6 3 3 2 1 1
4 2 2 2 4 4 4 4 5 5 3 1 4 5 5 5 6 5 5 5 5 4 3 3 3 2 3 4 2 2 3 2 1 1 2 1 1 2 3 2 1 1 2 2 0 2 1 1 1 3 5 4 4 4 5 6 8 9 9 8 7 8 9 11 13 15 15 14 14 15 14 15 15 14 13 15 15 14 14 13 11 9 5 2 2 1 2
2 1 1 2 4 4 2 2 4 5 4 4 5 4 4 3 3 3 3 3 3 3 3 4 4 2 2 3 1 2 2 1 1 2 2 2 1 2 3 2 0 0 2 1 2 1 1 1 1 3 3 3 3 4 5 6 7 7 7 7 7 7 8 9 12 15 15 14 14 15 15 15 16 16 15 15 15 14 13 12 11 11 8 3 1 2 2
1 1 3 5 4 2 2 3 6 7 6 4 2 2 2 3 3 2 2 3 2 2 3 4 3 3 3 4 2 1 2 3 2 1 1 1 1 1 2 2 1 1 3 1 1 0 2 2 2 2 2 3 3 4 5 6 7 7 7 7 7 8 8 8 10 13 13 12 12 13 13 13 14 14 13 13 13 13 12 11 11 12 12 8 5 3 1
3 3 4 3 1 2 3 5 7 6 3 3 3 2 2 3 2 1 1 2 2 2 3 2 3 2 3 5 4 0 2 2 3 2 0 1 1 1 2 1 1 1 3 1 1 1 3 3 2 3 3 3 4 5 5 5 6 8 8 8 8 9 9 9 10 13 13 12 12 13 13 13 13 12 12 13 13 13 13 12 12 13 14 13 11 10 7
3 3 2 2 2 2 4 6 5 3 3 3 2 2 2 2 2 1 2 3 2 1 2 2 3 2 2 3 4 1 1 1 2 2 2 1 1 1 2 1 1 1 3 1 1 1 2 2 3 3 3 4 5 6 5 5 6 7 8 9 10 10 10 9 11 13 14 12 11 12 14 16 15 14 14 15 13 12 13 13 14 16 17 15 14 13 13
5 4 2 1 1 3 4 4 4 3 3 2 2 3 3 2 1 1 2 2 2 1 1 1 4 4 2 2 3 2 0 1 1 2 2 1 1 1 1 0 1 1 2 1 0 1 2 2 3 3 3 4 5 6 6 6 6 6 8 9 10 10 10 9 9 12 14 12 11 11 13 16 16 16 16 17 16 15 15 16 17 18 19 17 16 15 15
5 4 3 2 2 3 3 3 3 3 2 2 2 2 3 2 1 2 2 1 1 1 0 0 3 4 2 1 1 0 1 1 2 2 1 1 1 2 2 1 1 1 1 1 1 2 2 3 3 4 4 4 5 6 6 6 5 5 6 8 9 9 10 9 9 10 12 13 13 13 13 14 16 16 16 17 17 17 18 19 18 17 18 19 19 18 17
2 2 2 2 3 3 2 2 2 2 2 2 2 3 6 5 4 4 3 2 1 2 2 3 4 4 2 1 0 1 1 1 2 2 2 1 1 2 2 1 0 0 1 1 1 2 2 2 2 3 3 3 4 5 6 6 5 5 6 7 8 10 10 9 8 9 10 12 13 13 13 14 15 16 16 17 17 17 17 19 19 18 19 20 21 21 20
2 2 2 2 2 2 1 1 2 2 3 3 2 4 7 7 6 5 5 4 3 4 4 4 4 5 3 1 1 1 1 1 2 1 2 2 2 2 2 2 1 1 2 1 2 3 2 2 2 2 3 4 5 5 5 5 5 6 6 7 8 9 9 8 6 6 8 11 12 12 13 14 14 15 16 17 18 18 18 18 19 19 19 20 20 20 21
3 2 2 2 2 1 2 2 2 2 3 3 4 6 7 6 4 4 5 5 4 4 5 5 5 5 3 1 1 1 1 2 2 1 1 3 3 1 1 1 2 2 2 2 2 3 2 2 2 2 2 3 4 5 4 4 5 6 6 7 8 8 9 8 6 6 7 10 11 11 12 14 14 15 16 17 18 18 19 19 19 20 20 19 19 19 20
3 1 1 3 2 2 3 3 3 3 4 5 6 6 5 4 4 4 6 5 3 3 4 4 5 4 2 2 2 1 1 2 2 1 1 2 2 1 1 2 2 2 2 3 3 3 2 1 1 2 2 3 3 4 4 4 4 5 6 7 7 8 9 9 7 5 6 8 9 10 12 13 13 14 15 16 17 18 18 18 19 20 20 19 19 19 20
2 1 2 3 3 3 3 3 3 5 6 6 5 4 4 3 1 2 3 2 1 2 3 3 4 4 2 1 2 3 2 1 2 1 1 2 2 1 1 3 3 2 1 3 3 2 1 1 2 2 2 2 3 4 4 4 4 5 6 6 7 9 9 8 6 4 4 6 8 9 10 11 12 13 14 15 16 17 18 18 19 19 19 19 19 20 20
3 2 2 2 3 4 4 4 5 6 6 5 4 5 6 6 5 2 1 1 1 1 3 1 4 5 3 1 2 3 2 2 2 1 1 2 2 2 2 3 4 2 2 2 1 1 1 3 4 3 3 3 3 3 3 3 4 4 5 6 7 8 8 9 9 8 6 4 6 8 9 10 10 12 13 14 15 16 17 18 18 18 18 19 19 19 20
3 3 3 3 4 5 4 4 6 7 7 6 3 4 3 6 6 2 1 1 2 1 1 2 4 4 2 2 2 2 1 1 2 3 3 3 3 2 3 4 4 3 2 1 1 1 2 3 4 3 3 3 3 3 3 3 3 3 4 6 7 7 8 10 10 9 6 3 4 7 8 8 9 11 11 12 13 14 16 17 18 18 18 18 18 18 19
2 3 4 4 5 5 5 5 7 7 7 7 4 2 2 4 4 1 1 1 2 2 2 2 2 2 1 1 1 1 1 2 3 4 3 2 2 3 3 4 3 2 2 1 1 2 3 3 3 3 3 3 2 2 3 3 3 3 4 5 5 6 7 8 8 7 6 4 4 4 5 6 8 9 9 10 11 12 14 16 17 17 17 17 17 17 18
3 3 4 4 4 4 4 6 6 6 5 5 3 1 2 2 2 0 0 2 3 3 1 1 1 2 2 1 1 1 2 2 3 4 3 1 1 2 4 4 3 2 2 0 2 3 3 3 3 3 3 3 2 2 2 2 3 4 4 5 5 5 6 6 7 6 5 4 3 3 3 4 5 6 7 8 10 10 11 13 14 15 16 16 16 16 16
Wind_Direction
344 346 348 350 349 350 351 352 352 350 353 355 343 325 314 8 23 353 347 342 317 296 99 98 69 84 93 95 81 59 42 42 34 36 6 335 319 291 288 318 306 305 323 307 298 299 292 281 277 277 275 283 2 15 356 336 326 317 298 305 349 327 261 245 247 254 268 271 272 274 274 274 259 243 232 227 225 226 232 244 252 237 226 219 226 238 235
347 348 349 351 352 352 351 351 350 351 354 352 338 328 353 17 6 9 6 357 321 279 78 86 95 92 106 111 93 79 59 36 22 37 22 357 310 286 302 319 299 315 322 298 299 310 296 278 283 283 280 309 44 348 326 337 329 328 349 350 343 313 257 247 248 240 237 244 244 233 227 240 237 229 227 231 240 251 255 260 270 253 238 230 225 227 228
347 347 348 351 354 354 350 347 350 351 353 351 341 324 303 308 291 65 23 20 27 59 47 53 99 101 103 92 76 88 87 48 13 21 31 19 336 299 315 315 297 315 312 291 294 294 279 283 293 282 284 295 11 344 329 325 313 334 351 329 302 282 274 268 253 238 220 213 223 230 231 234 228 225 225 228 235 243 246 242 234 230 238 241 236 232 222
347 348 350 353 354 353 347 346 351 352 351 352 345 323 308 321 17 39 38 43 56 68 49 39 72 92 95 83 55 24 61 78 40 353 7 29 354 314 325 309 290 298 303 295 292 283 277 286 292 294 297 299 326 17 302 296 302 325 325 299 278 267 266 265 261 258 260 277 299 315 320 291 243 223 220 218 221 232 239 237 232 230 237 236 233 244 250
348 351 355 358 356 351 345 348 352 352 356 359 344 324 335 343 18 18 12 60 67 71 61 47 56 64 27 33 47 22 10 43 66 358 350 12 333 297 308 318 304 310 313 303 296 296 294 286 287 296 301 306 313 299 282 284 286 293 286 271 265 268 259 255 259 263 270 281 291 296 300 290 277 263 243 222 212 220 226 229 231 235 245 235 225 235 248
349 352 358 0 357 349 347 353 355 357 9 7 337 327 17 19 49 28 316 309 50 52 45 47 62 65 52 50 38 20 17 12 13 25 317 310 309 296 259 279 316 328 321 303 296 302 297 286 291 306 307 307 308 299 291 285 265 248 259 257 261 271 265 260 264 269 274 279 282 283 279 274 275 276 268 251 230 222 224 228 230 231 241 244 243 256 252
350 355 360 0 355 349 350 355 358 4 18 13 352 13 47 40 66 48 318 334 59 58 47 47 57 52 39 50 42 21 24 19 356 320 287 268 295 312 288 288 318 316 302 291 289 299 297 290 301 310 304 302 303 301 293 280 256 262 265 260 263 265 266 271 272 275 280 280 276 272 268 266 266 266 263 259 249 235 229 230 233 235 243 249 266 292 282
354 0 4 359 350 349 351 353 359 6 18 25 32 48 45 43 67 46 29 77 73 70 62 44 60 57 27 32 49 27 16 17 356 313 294 280 266 307 302 309 314 303 289 276 274 287 294 286 288 294 294 293 293 296 294 282 280 285 276 264 261 259 268 282 287 285 280 279 276 266 257 257 261 262 260 256 249 239 233 230 229 233 238 239 245 265 268
356 4 7 358 347 350 353 352 356 5 19 31 44 55 49 53 64 14 352 78 56 42 62 37 34 56 36 34 44 22 24 19 339 312 308 292 293 319 314 313 311 296 279 272 280 295 290 279 279 281 280 281 282 281 280 281 282 281 275 267 255 253 270 282 284 279 274 274 270 260 253 252 253 254 253 247 242 236 230 227 229 232 231 225 225 234 247
359 5 5 356 348 351 353 350 352 4 25 30 28 48 49 49 70 33 336 74 45 8 59 31 350 44 41 36 27 1 19 21 337 335 53 265 286 318 310 306 307 294 285 294 307 309 296 285 283 280 275 273 272 267 263 264 267 267 269 270 257 252 264 274 272 271 272 271 265 257 253 249 245 244 242 238 236 236 229 218 214 234 230 223 225 229 263
0 6 0 349 347 351 351 351 354 5 27 34 22 37 35 28 62 43 334 99 74 11 20 30 30 54 50 33 13 341 346 0 346 337 290 263 284 295 290 294 294 293 318 329 315 302 293 285 280 273 268 265 264 264 261 258 255 253 255 258 254 251 251 256 264 266 270 273 270 259 244 238 237 243 239 231 226 226 225 206 168 176 227 249 268 289 328
357 2 353 346 348 353 352 353 1 9 22 34 32 31 26 13 13 5 8 86 72 17 15 45 43 50 56 35 334 314 322 329 331 311 292 290 293 283 279 285 283 298 336 327 310 302 294 285 276 266 260 260 260 259 257 255 251 246 244 244 246 247 245 246 253 254 266 276 271 251 239 231 220 258 252 241 229 213 180 117 106 153 244 281 284 287 309
359 357 346 346 350 353 353 356 6 13 18 30 40 30 27 1 341 10 37 68 74 41 18 55 66 32 28 5 316 314 319 313 302 286 281 285 286 280 277 279 281 301 320 314 307 306 298 288 282 271 262 258 255 253 256 259 254 245 238 235 236 240 240 242 248 248 256 261 247 244 248 233 198 205 225 244 223 184 143 112 95 68 309 281 280 283 301
1 0 344 347 350 349 349 355 3 13 17 22 18 6 59 88 349 6 355 352 72 62 353 19 68 3 349 339 329 327 320 308 299 291 289 289 288 288 287 287 288 298 307 305 299 297 293 294 295 286 276 264 251 254 280 286 272 259 247 234 228 233 235 234 240 241 244 250 246 252 262 247 219 205 202 231 213 174 159 150 111 53 6 329 316 308 316
358 357 345 346 347 343 343 349 353 1 11 19 18 1 48 128 106 25 338 326 34 86 22 5 1 342 331 337 342 331 321 322 313 296 276 266 279 285 285 291 295 294 292 290 290 288 289 298 302 301 306 311 304 302 312 309 292 277 265 243 223 223 228 227 231 232 235 249 253 253 254 243 210 164 148 284 308 312 244 185 141 85 8 17 6 347 347
357 348 341 342 339 333 336 339 337 345 3 19 36 22 113 157 153 161 284 306 322 49 48 16 336 325 326 331 333 319 314 330 330 311 253 213 272 291 289 293 293 287 279 274 277 283 283 283 292 299 307 327 332 306 300 311 302 280 278 259 226 218 221 225 234 237 233 238 241 242 246 234 128 69 11 353 1 339 256 214 195 97 20 25 12 5 6
358 345 338 336 326 316 315 321 323 332 359 20 36 55 116 164 166 176 204 268 305 333 13 351 302 305 321 322 321 317 309 316 318 308 301 320 324 317 312 310 289 263 269 281 274 276 288 290 297 302 302 329 319 292 294 312 289 274 284 270 226 214 212 216 225 232 235 236 235 241 245 227 48 355 332 338 344 282 220 214 203 61 32 24 19 19 14
350 342 333 328 318 305 297 303 314 320 338 16 74 169 226 182 180 186 202 268 295 303 45 8 301 302 318 321 321 319 311 308 305 297 300 308 315 321 325 324 308 247 250 282 285 288 301 309 315 310 308 155 193 284 309 305 268 268 274 264 226 211 209 212 217 221 230 234 235 248 250 280 10 338 328 338 306 220 203 204 115 61 44 33 28 24 18
344 330 317 309 307 297 286 292 303 307 318 354 175 206 204 177 182 204 227 250 268 283 329 311 286 287 298 298 292 288 281 279 279 294 295 293 328 336 319 302 297 289 266 276 292 294 298 316 333 300 297 274 217 275 295 277 258 269 270 252 220 204 203 209 216 220 224 225 233 253 252 13 0 335 328 342 283 211 181 63 64 60 43 41 36 24 18
339 325 313 306 302 287 273 276 281 286 292 276 199 208 210 194 198 218 241 267 285 284 288 278 269 277 282 275 280 290 285 266 258 277 280 278 352 339 310 265 268 310 291 289 309 311 301 317 333 282 279 299 299 279 290 275 236 252 271 245 205 198 202 206 211 216 221 219 222 239 244 5 352 332 326 358 330 274 14 7 85 66 34 30 31 20 10
332 322 311 305 302 282 263 261 264 268 268 238 194 200 223 219 210 220 246 272 287 287 311 319 290 284 282 276 276 280 280 281 285 281 270 270 311 315 299 309 328 318 315 321 318 319 320 318 324 305 279 297 294 288 305 304 276 308 321 311 160 340 235 218 219 216 220 216 208 240 291 341 345 340 5 53 47 40 4 350 60 60 28 16 14 7 2
326 317 307 299 294 275 257 258 259 251 240 212 178 180 202 215 211 216 235 246 253 268 291 303 293 277 271 271 270 266 268 275 276 265 254 262 255 221 265 296 300 293 333 338 313 309 321 321 319 312 296 292 289 294 306 316 338 350 353 10 9 343 342 246 238 249 261 255 257 312 319 328 338 346 17 46 47 38 13 2 15 20 7 2 350 348 351
323 313 306 299 291 272 251 254 256 233 205 186 175 182 210 219 207 218 241 246 258 271 275 276 273 264 258 262 260 254 256 261 259 245 231 235 247 233 242 273 294 307 1 6 330 311 310 308 308 303 295 298 308 302 300 308 331 339 353 23 286 303 313 289 262 293 311 299 270 273 302 318 318 306 355 48 5 13 8 357 347 339 336 330 327 337 342
322 311 303 294 282 268 244 238 242 223 193 183 179 190 228 231 209 218 242 247 270 293 262 239 255 313 325 315 288 262 253 254 255 243 224 218 232 249 245 284 317 316 131 131 156 271 296 300 296 292 294 314 329 316 310 328 346 340 345 356 317 310 324 322 302 315 324 308 252 286 308 311 296 249 215 274 293 326 345 338 326 319 314 310 316 329 334
327 314 303 289 270 262 247 230 228 217 195 186 183 190 224 234 214 218 243 260 287 329 310 203 84 32 342 330 340 329 316 300 275 247 219 213 225 248 303 24 352 312 346 153 185 225 292 298 287 292 304 333 352 332 322 328 333 338 353 2 346 319 325 328 314 305 288 265 283 318 313 296 251 213 233 292 309 321 326 322 317 313 306 303 308 316 323
334 319 302 281 255 246 241 227 224 218 200 186 183 196 221 235 210 200 233 274 266 245 288 328 91 78 346 350 14 1 350 349 335 245 213 216 228 244 265 273 269 291 301 231 204 252 317 295 287 304 319 347 344 325 317 316 312 312 345 352 327 306 317 332 319 297 273 258 298 332 327 283 201 219 308 317 319 316 313 310 310 309 305 304 308 314 320
336 326 307 274 242 226 223 223 226 220 204 190 187 204 222 225 209 197 217 274 272 231 267 307 61 26 344 346 8 2 3 16 25 57 169 197 216 225 237 250 263 282 293 245 179 139 342 326 322 309 304 313 314 303 290 290 295 301 346 348 338 322 328 341 329 303 300 324 337 339 327 287 277 311 318 318 317 312 308 307 307 305 305 306 307 310 316
340 333 314 273 236 218 212 216 221 217 205 197 199 225 235 228 221 215 214 241 273 294 306 302 312 320 317 316 350 1 13 30 38 61 106 138 169 190 212 239 252 261 307 352 116 110 31 6 343 309 300 309 309 304 298 289 288 356 360 356 3 3 343 342 336 316 322 335 333 326 311 294 296 306 311 313 313 309 305 304 303 302 304 303 301 303 308
344 337 321 282 240 221 209 207 209 207 201 196 204 240 246 231 222 223 217 214 240 276 298 285 269 279 312 327 323 330 16 39 52 74 99 116 132 154 187 222 248 284 341 340 226 28 40 40 327 310 318 315 309 318 327 328 8 22 358 355 8 12 356 347 339 324 317 324 325 318 305 295 296 303 307 307 306 304 303 301 300 300 300 298 297 297 295
348 340 326 297 250 225 210 204 204 197 190 190 209 243 247 219 201 210 215 207 214 249 294 301 278 237 336 304 279 241 214 51 87 93 99 115 125 143 183 206 228 272 280 295 322 332 34 104 20 3 355 325 325 337 339 339 11 18 356 352 360 4 359 353 346 337 332 330 326 317 305 303 309 311 312 317 319 314 306 300 298 298 296 295 297 292 281
349 340 326 305 262 229 213 207 205 197 188 193 224 263 288 87 159 196 209 200 198 236 278 286 284 284 223 219 232 249 271 256 224 186 145 148 146 158 208 230 243 252 267 297 303 289 342 14 22 33 23 348 339 2 1 357 10 7 352 351 357 359 355 352 347 343 341 339 335 326 312 328 340 337 333 333 327 317 308 303 300 297 293 292 294 287 278
346 338 325 304 268 232 214 208 207 200 195 210 241 270 301 330 203 192 191 184 189 241 280 280 278 287 254 175 204 230 244 246 236 224 211 203 199 195 214 238 263 251 250 274 282 310 3 0 3 26 20 349 330 5 24 19 17 2 350 352 358 357 354 357 357 354 353 354 352 348 342 345 349 347 338 331 326 322 321 317 305 299 299 297 291 284 279
345 339 324 304 267 226 212 210 209 204 206 232 251 258 261 267 257 207 173 174 194 234 269 285 291 295 317 68 133 188 203 217 227 223 210 195 206 224 220 226 247 233 220 241 300 7 5 343 349 18 33 5 346 13 23 16 10 4 359 359 359 356 355 1 6 6 5 4 2 358 346 340 340 341 340 339 339 338 333 324 308 298 294 285 284 284 277
344 340 330 310 264 220 209 205 202 204 224 251 262 261 251 253 242 205 177 176 201 222 219 254 293 308 291 141 139 180 209 227 231 225 211 173 177 233 246 217 222 226 203 216 293 351 54 349 356 13 31 28 18 19 12 0 359 4 8 6 1 357 357 3 7 9 7 4 1 357 346 341 344 352 358 0 357 347 339 335 325 302 283 269 275 283 267
344 344 338 321 242 192 185 185 190 207 238 256 264 266 258 243 213 191 186 192 228 254 224 232 286 316 316 308 105 169 214 240 254 237 237 140 157 244 267 236 219 214 125 214 271 15 35 346 332 3 14 19 25 19 356 345 346 354 5 9 5 2 2 4 3 2 1 1 0 357 354 356 3 6 6 7 2 350 344 349 356 328 287 271 280 287 258
347 351 350 3 142 152 163 182 197 214 240 264 247 212 194 133 140 168 194 221 253 277 292 252 261 299 317 322 3 123 189 235 262 170 223 261 205 234 248 248 241 217 127 233 246 52 39 329 316 23 26 25 25 8 343 336 341 347 356 3 4 4 5 5 0 356 357 2 6 5 3 5 9 10 9 7 2 352 348 353 2 358 317 271 263 265 210
345 3 41 99 150 176 190 192 201 220 236 158 115 126 126 119 131 167 208 234 241 242 255 267 272 290 317 318 331 139 172 216 200 167 206 231 209 211 225 237 243 190 208 235 246 62 31 312 11 43 37 34 28 6 346 342 345 348 349 351 353 356 358 0 360 358 358 2 7 9 8 7 8 10 8 4 0 357 355 355 357 0 357 301 244 229 186
327 355 156 202 218 231 227 176 188 197 180 141 130 135 143 158 182 200 206 211 213 209 220 251 267 266 282 304 307 149 167 241 228 189 208 232 215 212 225 233 277 312 250 268 59 66 261 278 41 43 38 45 36 11 359 353 353 355 352 350 352 353 350 353 0 2 2 5 8 9 8 7 5 4 4 3 1 359 360 359 359 2 6 1 259 214 200
262 250 235 232 245 307 24 132 159 157 144 147 192 217 187 192 215 216 178 183 194 192 202 231 262 271 284 307 323 150 193 273 282 225 179 230 239 242 241 225 149 240 265 290 72 211 272 322 6 352 7 35 30 12 3 352 353 3 3 357 358 357 350 351 1 7 8 10 12 11 10 8 4 360 2 7 6 2 3 5 6 10 15 20 28 43 99
236 246 248 249 293 28 91 134 143 143 153 203 234 238 210 208 225 234 193 211 220 183 180 233 279 256 251 291 314 313 183 260 305 330 266 222 217 239 251 223 133 234 272 305 77 260 299 335 338 318 344 17 14 5 359 347 351 3 5 0 2 3 355 354 3 9 11 14 16 17 17 16 11 5 6 11 13 10 9 8 8 12 20 27 31 33 34
235 247 277 334 33 101 141 152 161 189 229 234 227 235 237 222 207 220 250 264 282 140 158 247 295 282 215 260 297 311 153 208 312 313 277 247 191 229 250 178 121 256 280 317 102 236 292 318 317 320 356 13 360 350 347 346 352 358 356 356 3 5 359 356 2 9 12 14 17 18 19 20 20 16 12 14 18 18 15 15 17 19 22 28 36 37 37
251 246 269 14 95 153 169 185 202 220 237 245 241 241 241 234 236 263 259 276 328 7 145 236 305 320 325 296 299 311 102 160 235 251 255 250 215 241 261 189 151 266 292 323 178 260 293 306 309 328 6 12 353 346 348 351 354 352 352 356 3 4 0 356 358 5 11 16 18 20 22 24 25 22 17 17 20 23 23 25 27 24 21 23 32 41 45
251 230 229 228 209 202 209 218 213 211 231 239 235 256 269 268 278 289 271 235 289 302 291 334 306 300 285 246 277 319 106 160 233 259 283 285 220 234 260 263 233 272 301 236 239 284 309 305 308 335 5 7 356 352 352 352 351 348 352 1 7 8 8 5 356 356 6 16 21 24 27 28 28 27 24 22 22 24 27 30 31 29 26 27 31 37 44
200 193 217 237 224 209 219 232 212 213 247 244 236 289 309 314 319 319 324 350 342 315 336 356 330 314 320 21 306 252 158 179 218 244 273 283 250 254 278 305 57 142 242 268 290 306 314 318 336 356 1 357 356 355 351 351 356 355 355 4 14 20 23 18 1 353 5 18 20 23 30 33 31 30 30 29 28 29 31 32 32 32 33 34 34 35 38
213 219 226 248 235 197 208 243 203 216 256 271 269 302 316 322 325 326 334 348 342 332 347 356 328 308 312 337 273 261 259 233 214 229 277 284 272 276 311 346 12 228 252 299 315 301 298 328 21 23 6 356 1 3 357 354 0 360 354 2 20 32 35 29 7 355 7 15 14 18 30 36 35 33 34 34 34 35 36 37 37 36 36 36 35 34 36
261 262 254 275 277 236 230 250 237 242 281 302 306 310 320 335 353 345 339 339 339 347 357 346 316 296 294 296 272 250 276 277 271 283 304 292 289 318 1 337 295 286 305 317 302 293 309 354 23 32 24 10 5 10 10 3 2 1 358 5 20 32 37 37 26 12 10 13 14 22 32 35 36 38 39 38 37 37 37 39 41 43 42 40 37 34 35
259 256 259 276 274 234 224 241 265 292 303 306 308 318 344 29 42 354 331 331 352 19 9 330 297 279 272 286 286 264 237 271 290 321 325 304 311 352 349 279 286 312 313 283 279 295 345 39 67 62 49 30 15 18 22 13 4 3 3 6 15 24 33 42 47 35 15 13 19 29 35 35 35 39 41 40 39 37 35 36 41 45 47 46 42 39 38
264 232 242 261 256 247 256 283 304 302 300 306 324 3 40 59 53 313 319 332 29 60 45 355 305 282 257 250 281 286 288 301 310 324 317 304 308 308 268 286 305 320 274 258 275 311 354 104 118 99 82 59 34 31 34 23 9 6 7 9 14 19 25 36 46 45 24 18 24 32 36 35 35 38 41 41 41 40 37 36 39 42 45 47 47 45 42
275 257 251 260 264 266 279 298 302 300 309 332 20 49 29 348 314 282 193 223 227 128 96 49 288 288 296 344 323 312 326 343 333 297 259 267 280 286 294 301 306 300 278 279 307 346 107 133 130 121 109 89 54 39 41 35 15 8 8 12 16 17 16 20 33 48 53 34 21 28 34 34 35 37 39 38 39 41 41 40 41 41 42 45 48 49 48
248 249 243 250 268 281 293 299 296 304 323 342 28 78 34 322 301 275 171 246 252 153 126 225 252 272 323 13 357 327 331 328 302 284 277 287 302 310 312 308 305 305 315 330 351 122 138 142 143 138 125 109 74 45 46 45 27 15 14 16 19 21 17 19 35 58 73 52 9 15 23 26 29 33 33 32 35 40 43 43 43 43 43 44 47 50 51
223 242 244 250 272 292 309 313 310 318 333 337 344 84 155 256 265 255 44 296 251 221 224 250 267 291 315 346 334 309 299 281 277 282 292 312 320 313 316 323 331 334 336 349 130 151 153 149 149 144 136 129 108 66 57 55 41 28 20 16 19 23 20 20 31 50 62 51 18 3 4 13 21 25 24 23 27 36 42 43 43 43 43 44 46 49 51
222 259 274 268 267 279 297 308 315 328 341 336 324 188 181 234 263 257 279 262 243 235 254 352 358 313 303 322 344 306 282 266 276 292 307 337 337 316 323 335 345 338 316 263 150 157 163 159 154 153 150 141 130 112 99 88 66 44 29 22 20 19 17 19 27 34 43 51 43 17 6 13 17 14 15 18 23 29 35 39 41 41 43 44 46 49 51